Lid_Strength_Index
-1 3 6 6 11 10 11 9 7 8 9 7 5 6 7 6 8 10 2 1 0 0 -1 -1 -1 -1 -1 -1 -1 -1 -1 -1 -1 -1 -1 -1 -1 -1 -1 -1 -1 -1 -1 -1 -1 -1 -1 -1 -1
0 5 6 9 13 14 12 9 8 6 6 6 7 6 5 7 4 4 3 1 0 -0 -1 -1 -1 -1 -1 -1 -1 -1 -1 -1 -1 -1 -1 -1 -1 -1 -1 -1 -1 -1 -1 -1 -1 -1 -1 -1 -1
3 4 8 10 13 15 13 10 8 6 5 6 6 4 5 6 4 3 1 0 0 0 -1 -1 -1 -1 -1 -1 -1 -1 -1 -1 -1 -1 -1 -1 -1 -1 -1 -1 -1 -1 -1 -1 -1 -1 -1 -1 -1
5 5 7 12 13 12 12 9 8 7 6 6 6 8 4 3 3 2 1 0 1 0 -0 -1 -1 -1 -1 -1 -1 -1 -1 -1 -1 -1 -1 -1 -1 -1 -1 -1 -1 -1 -1 -1 -1 -1 -1 -1 -1
6 7 11 12 12 11 10 9 9 9 8 7 8 8 7 3 1 1 1 0 1 0 -0 -1 -1 -1 -1 -1 -1 -1 -1 -1 -1 -1 -1 -1 -1 -1 -1 -1 -1 -1 -1 -1 -1 -1 -1 -1 -1
8 9 13 13 12 11 9 9 9 9 9 8 8 8 7 2 2 1 1 1 0 0 -0 -1 -1 -1 -1 -1 -1 -1 -1 -1 -1 -1 -1 -1 -1 -1 -1 -1 -1 -1 -1 -1 -1 -1 -1 -2 -2
7 10 12 12 12 11 10 8 9 10 10 9 8 9 6 4 2 1 1 0 0 -0 -0 -0 -1 -1 -1 -1 -1 -1 -1 -1 -1 -1 -1 -1 -1 -1 -1 -1 -1 -1 -1 -1 -1 -1 -2 -2 -1
6 9 12 12 12 11 9 8 8 8 10 8 8 10 9 4 2 1 1 1 1 0 0 0 -1 -1 -1 -1 -1 -1 -1 -1 -1 -1 -1 -1 -1 -1 -1 -1 -1 -1 -1 -1 -1 -1 -1 -1 -1
7 10 12 11 12 11 9 9 8 7 8 9 8 8 3 2 2 2 2 2 1 1 1 0 -0 -0 -1 -1 -1 -1 -1 -1 -1 -1 -1 -1 -1 -1 -2 -2 -1 -1 -1 -1 -1 -1 -1 -1 -2
8 10 10 8 9 10 9 8 8 8 8 9 8 7 4 2 3 3 3 3 3 2 1 0 0 -0 -1 -1 -1 -1 -1 -1 -1 -1 -1 -1 -1 -1 -1 -1 -1 -1 -1 -1 -1 -1 -1 -1 -1
9 10 8 8 7 8 8 9 7 8 9 7 7 7 3 3 3 3 3 3 2 2 1 1 0 -0 -0 -0 -1 -1 -1 -1 -1 -1 -1 -1 -1 -1 -1 -1 -1 -1 -1 -1 -1 -1 -1 -1 -1
10 9 9 8 8 8 9 7 7 7 7 5 5 6 6 4 4 4 3 3 2 2 2 1 0 -0 -0 -1 -0 -0 -0 -1 -1 -1 -1 -1 -1 -1 -1 -1 -1 -1 -1 -1 -1 -2 -1 -1 -1
9 9 8 8 8 8 7 9 9 8 5 4 4 4 5 4 3 3 2 2 2 2 1 1 1 0 -0 -0 -0 -0 -0 -0 -1 -1 -1 -1 -1 -0 -1 -1 -1 -1 -1 -1 -1 -1 -1 -1 -1
8 8 8 8 8 8 9 8 8 8 6 5 5 4 4 5 3 3 3 3 2 2 2 1 1 -0 -0 -0 -0 -0 -1 -1 -1 -1 -1 -1 -1 -1 -1 -1 -1 -1 -1 -2 -1 -1 -1 -0 -1
6 9 8 8 8 9 7 10 10 7 6 6 5 5 4 6 4 3 3 3 2 2 1 1 0 -0 -0 -0 -0 -0 -1 -1 -0 -1 -1 -1 -1 -1 -1 -1 -1 -1 -2 -1 -1 -1 -1 -1 -1
8 8 11 8 8 8 8 13 9 7 8 7 7 6 6 5 3 3 2 2 2 1 1 1 0 0 -0 -0 -0 -0 -1 -1 -1 -1 -1 -1 -1 -2 -1 -0 -1 -1 -2 -1 -1 -0 -0 0 0
9 12 11 10 7 8 9 12 8 7 7 8 7 6 6 6 3 3 2 2 2 1 1 1 0 1 0 0 -0 -0 -1 -0 -1 -1 -1 -1 -1 -1 -1 -1 -1 -1 -1 -0 -0 0 0 1 1
12 12 11 10 8 8 9 10 8 7 7 8 7 6 5 6 3 3 2 2 1 1 1 1 1 1 0 1 -0 -0 -0 -0 -1 -1 -1 -1 -1 -1 -1 -1 -1 -1 -0 -0 -0 0 0 1 1
9 10 11 9 7 8 10 9 8 7 7 8 7 6 6 5 3 3 3 2 2 1 2 1 1 1 1 1 1 1 1 1 0 -0 -1 -1 -1 -1 -1 -1 -1 -1 -0 0 0 0 1 1 1
10 11 11 9 8 8 10 11 9 8 7 7 7 6 6 5 4 4 3 3 2 2 2 2 1 1 1 1 0 0 0 0 0 -0 -1 -1 -1 -1 -1 -0 -0 -0 0 0 1 1 1 1 1
11 11 11 11 9 8 9 12 11 9 7 7 6 5 5 5 4 5 4 3 3 2 2 2 1 1 0 -0 0 0 0 0 1 1 1 1 1 1 -1 1 1 1 0 1 2 1 1 2 1
13 9 10 11 12 14 9 15 12 10 9 8 7 6 6 6 4 4 4 4 3 2 1 1 1 1 0 0 1 1 2 3 2 1 2 2 1 2 2 2 1 2 2 2 2 2 1 3 2
12 9 10 10 12 12 12 13 12 10 9 8 8 6 5 7 5 4 4 3 3 2 2 1 1 1 0 0 0 1 2 2 2 3 3 3 3 2 3 3 4 3 2 2 3 4 4 3 3
9 11 11 11 12 17 13 13 13 11 9 8 8 6 6 7 5 4 3 3 3 2 2 1 1 1 1 1 1 1 2 2 3 3 3 3 4 4 4 4 4 3 3 4 4 4 3 3 2
11 14 18 19 19 18 12 13 13 9 7 7 8 6 6 7 4 4 4 4 3 3 2 2 2 2 1 1 1 1 1 1 3 2 3 4 4 4 5 4 3 3 4 4 4 3 2 1 1
13 12 16 21 19 16 12 15 12 9 7 6 6 5 6 6 4 5 4 4 3 3 2 2 2 2 1 1 1 1 0 1 1 1 1 1 3 4 5 4 4 4 4 4 3 3 2 1 1
14 16 10 16 13 15 13 11 8 8 8 7 7 6 6 6 5 5 4 4 3 3 3 2 2 2 1 1 1 1 1 1 1 1 2 2 3 3 3 4 4 4 4 4 3 2 2 1 1
12 9 16 15 19 20 14 13 12 9 9 7 7 7 5 4 5 5 4 4 3 3 2 2 2 2 2 1 1 1 2 2 2 2 4 3 4 4 5 5 5 5 4 3 3 3 2 2 2
14 14 13 12 13 18 17 13 8 8 7 8 7 6 6 5 5 5 4 4 3 4 4 4 4 3 3 3 3 3 3 2 3 3 3 4 5 5 6 6 5 5 4 3 3 3 2 2 1
9 12 12 16 15 15 18 14 6 7 6 6 6 6 5 5 5 5 4 4 4 5 5 6 5 5 5 4 4 5 4 4 4 5 5 5 6 6 7 6 5 5 5 4 3 3 2 2 1